Regional Weather Roundup
Issued by NWS

Home | Current Version | Previous Version | Text Only | Print | Product List | Glossary On
Versions: 1 2 3 4 5 6 7 8 9 10 11 12 13 14 15 16 17 18 19 20 21 22 23 24 25 26 27 28 29 30 31 32 33 34 35 36 37 38 39 40 41 42 43 44 45 46 47 48 49 50
000
ASUS43 KTOP 301808
RWRKS

WEATHER ROUNDUP FOR KANSAS
NATIONAL WEATHER SERVICE GOODLAND KS
100 PM CDT TUE SEP 30 2014

NOTE:  "FAIR" INDICATES FEW OR NO CLOUDS BELOW 12,000 FEET WITH NO
SIGNIFICANT WEATHER AND/OR OBSTRUCTIONS TO VISIBILITY.

KSZ001>006-013>018-027>032-041>047-301900-
NORTHWEST KANSAS

CITY           SKY/WX    TMP DP  RH WIND       PRES   REMARKS
GOODLAND       SUNNY     69  43  38 VRB6      29.82F
6HR MIN TEMP:  45; 6HR MAX TEMP:  69;

HAYS           CLOUDY    72  61  68 S12       29.79F
HILL CITY      MOSUNNY   74  59  59 CALM      29.78F
6HR MIN TEMP:  56; 6HR MAX TEMP:  75;

RUSSELL        MOSUNNY   71  64  78 S14       29.78F
6HR MIN TEMP:  63; 6HR MAX TEMP:  71; 6HR PCP:  0.09;

$$

KSZ061>065-074>080-084>089-301900-
SOUTHWEST KANSAS

CITY           SKY/WX    TMP DP  RH WIND       PRES   REMARKS
DODGE CITY     PTSUNNY   77  56  48 S13G20    29.79F
6HR MIN TEMP:  63; 6HR MAX TEMP:  78; 6HR PCP: TRACE;

GARDEN CITY    MOSUNNY   71  59  65 VRB3      29.79F
6HR MIN TEMP:  62; 6HR MAX TEMP:  72;

GREAT BEND     CLOUDY    72  63  73 S13       29.80S
LIBERAL        SUNNY     77  55  47 SW10G16   29.81F
PRATT          PTSUNNY   79  57  47 S22       29.80F
$$

KSZ066>073-081>083-090>101-301900-
SOUTHEAST KANSAS

CITY           SKY/WX    TMP DP  RH WIND       PRES   REMARKS
CHANUTE        SUNNY     81  61  50 S15       29.89F
6HR MIN TEMP:  58; 6HR MAX TEMP:  81;

COFFEYVILLE    SUNNY     82  62  50 S18       29.88F
6HR MIN TEMP:  56; 6HR MAX TEMP:  83;

HUTCHINSON     PTSUNNY   80  60  50 S20G29    29.81F
6HR MIN TEMP:  66; 6HR MAX TEMP:  83;

MEDICINE LODGE   N/A     81  58  45 S18G31    29.78F
NEWTON         PTSUNNY   81  61  50 S20G25    29.85F
PARSONS        SUNNY     83  61  47 S13G18    29.90F
6HR MIN TEMP:  56; 6HR MAX TEMP:  83;

WICHITA INTL   PTSUNNY   85  60  42 S22G30    29.81F
6HR MIN TEMP:  62; 6HR MAX TEMP:  85;

WICHITA JABRA  SUNNY     81  61  50 S18G28    29.83F
6HR MIN TEMP:  61; 6HR MAX TEMP:  82;

WICHITA MCCONL SUNNY     82  61  48 SE21G26   29.83F
WINFIELD       MOSUNNY   84  62  47 S17G25    29.85F
6HR MIN TEMP:  63; 6HR MAX TEMP:  84;

$$

KSZ007>012-019>026-033>040-048>060-102>105-301900-
NORTHEAST KANSAS

CITY           SKY/WX    TMP DP  RH WIND       PRES   REMARKS
CONCORDIA      LGT RAIN  65  64  97 S9        29.82F FOG
6HR MIN TEMP:  63; 6HR MAX TEMP:  66; 6HR PCP:  0.50;

EMPORIA        SUNNY     81  59  47 S23G29    29.86F
6HR MIN TEMP:  59; 6HR MAX TEMP:  81;

LAWRENCE       SUNNY     83  58  42 S17G24    29.86F
6HR MIN TEMP:  56; 6HR MAX TEMP:  83;

MANHATTAN      CLOUDY    78  60  53 SW12      29.82F
6HR MIN TEMP:  62; 6HR MAX TEMP:  81;

MARYSVILLE     RAIN      68  64  88 SW6       29.84F
OLATHE IND     SUNNY     81  59  47 S15G25    29.89F
6HR MIN TEMP:  60; 6HR MAX TEMP:  82;

OLATHE EXE     SUNNY     82  60  47 S14G21    29.88F
6HR MIN TEMP:  60; 6HR MAX TEMP:  82;

SALINA         LGT RAIN  70  65  84 SE8       29.81F
6HR MIN TEMP:  66; 6HR MAX TEMP:  70; 6HR PCP:  0.18;

TOPEKA BILLARD MOSUNNY   86  60  41 S15       29.85F
6HR MIN TEMP:  60; 6HR MAX TEMP:  86;

TOPEKA FORBES  LGT RAIN  83  58  42 S16G28    29.86F
6HR MIN TEMP:  58; 6HR MAX TEMP:  84; 6HR PCP: TRACE;

$$



USA.gov is the U.S. government's official web portal to all federal, state and local government web resources and services.